STARLINK-35788, 66831

Orbit data source: Space-Track

STARLINK-35788, 66831 is a payload satellite owned by SpaceX/Seattle (US) in LEO that was launched on Tue, 02 Dec 2025 UTC via an FALCON 9 launch vehicle from the Air Force Western Test Range (AFWTR). Payload-class satellites include a variety of spacecraft equipped with specific instruments for various scientific and technological missions. These include communications satellites like Starlink; space stations such as the ISS; scientific satellites like the Hubble; Earth observation satellites from companies like Planet Labs, Umbra, and HawkEye 360; GPS; miniature CubeSats for education and research; and military/defense satellites.

Loading next visibility...
Identifier
66831, 2025-280L
Orbit
LEO
Country
Flag of USUS
Related business
Manufacturer
SpaceX/Seattle
Mission
Operational Commercial Communications
Bus & Motor
STARLINK V2MO, Unknown motor
Mass
575 kg wet, ~530 kg dry
Launch date (UTC)
2025-12-02 (7 months ago)
Launch vehicle
FALCON 9
Launch site
Air Force Western Test Range (AFWTR)
Object type
Payload
Rocket body
Debris
Shape & HBR
Box + 2 Pan, 17.7 m
Radar Cross Section
36.964 m², Large (>1 m²)

Expand to show TLE details & history
Last TLE update: 22 hours ago

TLE from 22 hours ago
0 STARLINK-35788
1 66831U 25280L   26170.92809733  .00000320  00000-0  34552-4 0  9996
2 66831  70.0046  76.5468 0002212 262.3155  97.7753 14.98340845 31390
Epoch: 2026-06-19T22:16Z
TLE epoch observation values (Epoch: 2026-06-19T22:16:27.609Z)
Latitude
-0.00001°
Longitude
-165.71828°
Altitude
574.655 km
Speed
7.574 km/s
True Right ascension
05h 06m 11s
True Declination
0° 00' 00"
Sunlit
Object was in daylight at epoch
Visualization orbit readout
Latitude
Unknown
Longitude
Unknown
Altitude
Unknown
Speed
Unknown
Apparent Right ascension
Unknown
Apparent Declination
Unknown
Sunlit
N/A
Visualization observer readout
Local Sidereal Time
07:15:59
Azimuth
Unknown
Elevation
Unknown
Doppler factor
Unknown
Orbital elements
Apogee altitude
571.507 km
Perigee altitude
568.433 km
Semi-major axis
6,948.107 km
Eccentricity
0.00022
Inclination
70.0046°
RAAN
76.5468°
Arg. of periapsis
262.3155°
True anomaly
97.80041°
Mean anomaly
97.7753°
Eccentric anomaly
97.78786°
Mean motion
3.74752 °/min
Orbital period
96.06 mins
BSTAR
0.000034552
Loading maneuver chart data...
Computing Atmospheric mass density...
Loading historical data...
Loading historical data...
Loading historical data...
Loading historical data...
Loading historical data...
Loading historical data...
Loading historical data...

Documentation

Showing up to 5 results
|